Location: Asheville, NC
(35.6000°N, 82.5500°W)
Time: 16:25:35
(UTC-05:00)

ZACube-1 - Visible Passes

Search period start: 18 January 2018 00:00
Search period end: 28 January 2018 00:00
Orbit: 586 x 667 km, 97.6° (Epoch: 17 January)

Date Brightness Start Highest point End Pass type
(mag) Time Alt. Az. Time Alt. Az. Time Alt. Az.
19 Jan ? 19:18:11 11° NNE 19:18:11 11° NNE 19:18:25 10° N visible
20 Jan ? 19:37:18 14° N 19:37:18 14° N 19:38:03 10° N visible
21 Jan ? 19:56:24 17° N 19:56:24 17° N 19:57:29 10° N visible
22 Jan ? 18:38:11 10° NE 18:38:11 10° NE 18:38:11 10° NE visible
22 Jan ? 20:15:27 18° NNW 20:15:27 18° NNW 20:16:43 10° NNW visible
23 Jan ? 18:57:13 16° NE 18:57:13 16° NE 18:58:49 10° NNE visible
23 Jan ? 20:34:29 17° NW 20:34:29 17° NW 20:35:44 10° NNW visible
24 Jan ? 19:16:12 25° NE 19:16:12 25° NE 19:18:44 10° N visible
24 Jan ? 20:53:28 14° NW 20:53:28 14° NW 20:54:26 10° NW visible
25 Jan ? 19:35:09 39° NNE 19:35:09 39° NNE 19:38:21 10° N visible
25 Jan ? 21:12:24 10° WNW 21:12:24 10° WNW 21:12:28 10° WNW visible
26 Jan ? 19:54:01 59° N 19:54:01 59° N 19:57:45 10° N visible
27 Jan ? 18:35:33 11° E 18:36:47 12° ENE 18:38:38 10° NE visible
27 Jan ? 20:12:48 55° W 20:12:48 55° W 20:16:59 10° NNW visible
